AirNav   Pilot Hours Calculator
 
 642 users online  

KNRS Imperial Beach Naval Outlying Field (Ream Field)
Imperial Beach, California, USA

GOING TO IMPERIAL BEACH?


FAA INFORMATION EFFECTIVE 05 DECEMBER 2019

Location

FAA Identifier: NRS
Lat/Long: 32-33-58.1638N 117-06-48.6837W
32-33.969397N 117-06.811395W
32.5661566,-117.1135233
(estimated)
Elevation: 23.6 ft. / 7.2 m (surveyed)
Variation: 11E (2020)
From city: 1 mile S of IMPERIAL BEACH, CA
Time zone: UTC -8 (UTC -7 during Daylight Saving Time)
Zip code: 91932

Airport Operations

Airport use: Private use. Permission required prior to landing
Activation date: 02/1944
Control tower: yes
ARTCC: LOS ANGELES CENTER
FSS: SAN DIEGO FLIGHT SERVICE STATION
FSS-SAN DIEGO SAN-NOTAM NRS
NOTAMs facility: SAN (NOTAM-D service available)
Attendance: 
OPR 1600-0630Z MON-THU (1500-0600Z DT) AND 1600-0200Z++ FRI. CLSD FR 0200Z++ DAY PRIOR TIL 1600Z++ DAY FLW GOVT HOL; EXC PRE-COORD FLT OF OPR NECESSITY. CTC NOLF ATC DSN 577-9414/9415 FOR OPR INQUIRIES.
Segmented circle: no
Lights: AVBL ONLY DURING HRS OF OPERATION.
Beacon: white-white-green (lighted military airport)
Operates sunset to sunrise.

Airport Communications

ATIS: 276.2
WX ASOS: PHONE 619-437-9890
IMPERIAL BEACH GROUND: 285.575 [1600-0630Z MON-THU (1500-0600Z DT) AND 1600-0200Z++ FRI. CLSD FR 0200Z++ DAY PRIOR TIL 1600Z++ DAY FLW GOVT HOL.]
IMPERIAL BEACH TOWER: 120.65 239.25 [1600-0630Z MON-THU (1500-0600Z DT) AND 1600-0200Z++ FRI. CLSD FR 0200Z++ DAY PRIOR TIL 1600Z++ DAY FLW GOVT HOL.]
SOCAL APPROACH: 125.15
SOCAL DEPARTURE: 125.15
EMERG: 243.0
RADAR: 318.8
WX ASOS at SDM (7 nm E): 132.35 (619-661-8297)
WX ASOS at SAN (11 nm N): PHONE 619-296-8934
WX ASOS at MYF (15 nm N): 126.9 (858-576-4337)
WX AWOS-3P at SEE (17 nm NE): 125.45 (619-449-1228)
  • ATCT/GCA/ATIS OPR PUBLISHED HRS EXC PRE-COORD FLT OF OPR NECESSITY.
  • FOR CLNC DEL WHEN ATCT CLSD CALL SOCAL APCH (800) 448-3724.
  • ILS/RADAR - RADAR - SEE TERMINAL FLIP FOR RADAR MINIMA.

Nearby radio navigation aids

VOR radial/distance  VOR name  Freq  Var
PGYr235/7.3POGGI VORTAC116.4514E
TIJr267/8.2TIJUANA VOR/DME116.5014E
MZBr141/14.1MISSION BAY VORTAC117.8015E

Airport Services

Runway Information

Runway 8/26

Dimensions: 2240 x 151 ft. / 683 x 46 m
Surface: concrete
Weight bearing capacity: 
PCN 6 /R/C/W/T
RUNWAY 8  RUNWAY 26
Latitude: 32-34.018072N32-33.921433N
Longitude: 117-06.827898W117-06.406738W
Elevation: 23.5 ft.21.2 ft.
Traffic pattern: leftleft
Touchdown point: yes, no lightsyes, no lights

Runway 9/27

Dimensions: 4997 x 336 ft. / 1523 x 102 m
Surface: PEM
Weight bearing capacity: 
PCN 8 /F/A/W/T
Runway edge lights: high intensity
RUNWAY 9  RUNWAY 27
Latitude: 32-34.076683N32-33.861790N
Longitude: 117-07.368155W117-06.428677W
Elevation: 8.2 ft.19.8 ft.
Traffic pattern: leftleft
Touchdown point: yes, no lightsyes, no lights

Airport Ownership and Management from official FAA records

Ownership: U.S. Navy
Owner: US NAVY
OCEANOGRAPHIC OFC - CODE 3142
WASHINGTON, DC 20373

Additional Remarks

RSTD - OFFL BUS ONLY - PPR F/W AND NON-TENANT ACFT, CTC NASNI ODO DSN 735-8233/8234, C619-545-8233/8234. NORTH ISLAND TENANT ACFT AND COAST GUARD HAVE PRIORITY FOR LCL PAT OPR.
CAUTION: EXTV COPTER TRNG.
MISC: RWY 08-26 AVBL FOR DAY AND NGT COPTER USE ONLY (NGT AND SVFR USE AT PILOTS OWN RISK).
FUEL: J5 (AVAILABLE 1100-2100 MON-THU; 1000-1800 FRI).

Instrument Procedures

NOTE: All procedures below are presented as PDF files. If you need a reader for these files, you should download the free Adobe Reader.

NOT FOR NAVIGATION. Please procure official charts for flight.
FAA instrument procedures published for use from 05 December 2019 at 0900Z to 02 January 2020 at 0900Z.

 
IAPs - Instrument Approach Procedures
COPTER TACAN RWY 27   download (94KB)
NOTE: Special Take-Off Minimums/Departure Procedures apply   download (174KB)

Other nearby airports with instrument procedures:

KSDM - Brown Field Municipal Airport (7 nm E)
KNZY - North Island Naval Air Station (Halsey Field) (9 nm NW)
KSAN - San Diego International Airport (11 nm N)
KMYF - Montgomery-Gibbs Executive Airport (15 nm N)
KSEE - Gillespie Field Airport (17 nm NE)
KNKX - Miramar MCAS (Joe Foss Field) Airport (18 nm N)
 
Loc | Ops | Rwys | IFR | FBO | Links
Com | Nav | Svcs | Stats | Notes
Area around KNRS (Imperial Beach Naval Outlying Field (Ream Field))
 
Road maps at: MapQuest Bing Google
 
Aerial photo
WARNING: Photo may not be current or correct
Aerial photo of KNRS (Imperial Beach Naval Outlying Field (Ream Field))
Photo taken 02-Feb-2016
looking south.

Do you have a better or more recent aerial photo of Imperial Beach Naval Outlying Field (Ream Field) that you would like to share? If so, please send us your photo.

 
Sectional chart

 
Airport distance calculator
Flying to Imperial Beach Naval Outlying Field (Ream Field)? Find the distance to fly.

From to KNRS

Sunrise and sunset
Times for 15-Dec-2019
 Local
(UTC-8)
 Zulu
(UTC)
Morning civil twilight06:1714:17
Sunrise06:4414:44
Sunset16:4300:43
Evening civil twilight17:1101:11

Current date and time
Zulu (UTC)  15-Dec-2019 13:49:20
Local (UTC-8)  15-Dec-2019 05:49:20
 
METAR
KNRS 151256Z AUTO 7SM FEW023 BKN035 OVC049 A2998 RMK AO2 SLP153 $
KSDM 
6nm E 
151253Z AUTO 17004KT 9SM BKN039 12/09 A2997 RMK AO2 SLP145 T01170094
MMTJ 
8nm E 
151240Z 00000KT 6SM BKN015 11/10 A3000 RMK 8/500 HZY
KNZY 
10nm NW 
151252Z AUTO 27005KT 10SM FEW027 SCT050 14/10 A2996 RMK AO2 SLP145 T01390100 $
KSAN 
11nm N 
151320Z 31003KT 10SM BKN028 OVC041 15/11 A2999 RMK AO2 T01500111
KMYF 
15nm N 
151323Z AUTO 29005KT 10SM SCT023 BKN034 OVC046 13/10 A2998 RMK AO2 T01330100
KSEE 
17nm NE 
151335Z AUTO 00000KT 10SM OVC026 11/10 A2997 RMK AO2
KNKX 
18nm N 
151312Z 27004KT 10SM BKN026 BKN039 OVC046 13/10 A2997 RMK AO2 T01330100
TAF
MMTJ 
8nm E 
151108Z 1512/1618 16005KT 6SM HZ BKN015 TX19/1521Z TN12/1612Z FM151500 00000KT 6SM HZ SCT020 FM151800 26010KT P6SM SKC FM160300 24005KT 6SM HZ SCT250 FM161500 30010KT P6SM SKC
KNZY 
10nm NW 
1507/1607 31012KT 9999 SCT020 BKN040 BKN250 QNH2990INS TEMPO 1507/1513 29013G20KT 8000 BR BKN015 BKN035 T12/1513Z T18/1521Z FS30128
KSAN 
11nm N 
151130Z 1512/1618 28009KT P6SM SCT025 BKN035 TEMPO 1512/1516 BKN025 FM152000 30011KT P6SM SCT025 SCT250 FM160200 VRB05KT P6SM FEW025 SCT250
KNKX 
18nm N 
1509/1609 VRB05KT 9999 BKN025 OVC035 QNH2991INS TEMPO 1509/1515 3200 BR OVC005 BECMG 1517/1519 31009KT 9999 FEW030 SCT250 QNH2995INS T09/1513Z T17/1521Z
NOTAMs
Click for the latest NOTAMs
NOTAMs are issued by the DoD/FAA and will open in a separate window not controlled by AirNav.

 

 
 

Would you like to see your business listed on this page?

 If your business provides an interesting product or service to pilots, flight crews, aircraft, or users of the Imperial Beach Naval Outlying Field (Ream Field), you should consider listing it here.  To start the listing process, click on the button below
 
Add a business
 

Other Pages about Imperial Beach Naval Outlying Field (Ream Field)

Update a link
 
Copyright © AirNav, LLC. All rights reserved. Privacy Policy  Contact